| time (UTC) | temp F | wind direction | speed MPH | gust MPH | rain 1hr in | rain 24hr in | rain mn in | humidity % | barometer mb |
| 20260508161026 | 58 | 228 | 3.0 | 16.0 | 0.00 | 0.06 | 0.00 | 43 | 1018.2 |
| 20260508160505 | 58 | 252 | 4.0 | 17.0 | 0.00 | 0.06 | 0.00 | 43 | 1018.2 |
| 20260508160005 | 57 | 245 | 6.0 | 20.0 | 0.00 | 0.06 | 0.00 | 44 | 1018.6 |
| 20260508155504 | 58 | 227 | 6.0 | 20.0 | 0.00 | 0.06 | 0.00 | 44 | 1018.7 |
| 20260508155005 | 58 | 225 | 5.0 | 17.0 | 0.00 | 0.07 | 0.00 | 44 | 1018.6 |
| 20260508154505 | 58 | 228 | 6.0 | 17.0 | 0.00 | 0.07 | 0.00 | 45 | 1018.8 |
| 20260508154005 | 58 | 215 | 4.0 | 16.0 | 0.00 | 0.08 | 0.00 | 45 | 1018.8 |
| 20260508153504 | 58 | 218 | 6.0 | 14.0 | 0.00 | 0.10 | 0.00 | 46 | 1018.9 |
| 20260508153005 | 57 | 230 | 5.0 | 20.0 | 0.00 | 0.10 | 0.00 | 45 | 1019.1 |
| 20260508152525 | 57 | 230 | 5.0 | 20.0 | 0.00 | 0.10 | 0.00 | 45 | 1019.3 |
| 20260508152004 | 58 | 236 | 3.0 | 20.0 | 0.00 | 0.10 | 0.00 | 47 | 1019.6 |
| 20260508151505 | 56 | 225 | 5.0 | 20.0 | 0.00 | 0.10 | 0.00 | 46 | 1019.6 |
| 20260508151004 | 57 | 216 | 2.0 | 14.0 | 0.00 | 0.10 | 0.00 | 47 | 1019.5 |
| 20260508150505 | 57 | 223 | 1.0 | 14.0 | 0.00 | 0.10 | 0.00 | 48 | 1019.5 |
| 20260508150026 | 56 | 233 | 4.0 | 14.0 | 0.00 | 0.10 | 0.00 | 47 | 1019.8 |
| 20260508145504 | 56 | 218 | 6.0 | 16.0 | 0.00 | 0.10 | 0.00 | 47 | 1019.9 |
| 20260508145026 | 56 | 233 | 6.0 | 22.0 | 0.00 | 0.10 | 0.00 | 47 | 1019.8 |
| 20260508144525 | 56 | 239 | 6.0 | 22.0 | 0.00 | 0.10 | 0.00 | 49 | 1019.9 |
| 20260508144004 | 56 | 220 | 3.0 | 17.0 | 0.00 | 0.10 | 0.00 | 50 | 1019.7 |
| 20260508143504 | 55 | 231 | 8.0 | 17.0 | 0.00 | 0.10 | 0.00 | 49 | 1019.9 |
| 20260508143025 | 55 | 227 | 4.0 | 17.0 | 0.00 | 0.10 | 0.00 | 50 | 1019.9 |
| 20260508142504 | 55 | 222 | 7.0 | 11.0 | 0.00 | 0.10 | 0.00 | 49 | 1019.8 |
| 20260508142005 | 56 | 242 | 2.0 | 16.0 | 0.00 | 0.10 | 0.00 | 50 | 1019.8 |
| 20260508141525 | 55 | 236 | 3.0 | 16.0 | 0.00 | 0.10 | 0.00 | 52 | 1019.8 |
| 20260508141004 | 54 | 233 | 6.0 | 16.0 | 0.00 | 0.10 | 0.00 | 50 | 1019.9 |
| 20260508140525 | 54 | 227 | 8.0 | 17.0 | 0.00 | 0.10 | 0.00 | 49 | 1020.0 |
| 20260508140025 | 54 | 227 | 5.0 | 17.0 | 0.00 | 0.10 | 0.00 | 50 | 1020.2 |
| 20260508135504 | 54 | 221 | 6.0 | 13.0 | 0.00 | 0.10 | 0.00 | 51 | 1020.0 |
| 20260508135004 | 54 | 216 | 2.0 | 16.0 | 0.00 | 0.10 | 0.00 | 51 | 1019.9 |
| 20260508134525 | 53 | 229 | 5.0 | 16.0 | 0.00 | 0.10 | 0.00 | 52 | 1020.1 |
| 20260508134004 | 53 | 239 | 6.0 | 13.0 | 0.00 | 0.10 | 0.00 | 51 | 1020.0 |
| 20260508133504 | 53 | 247 | 4.0 | 16.0 | 0.00 | 0.10 | 0.00 | 52 | 1020.1 |
| 20260508133004 | 53 | 239 | 5.0 | 16.0 | 0.00 | 0.10 | 0.00 | 52 | 1020.1 |
| 20260508132525 | 53 | 232 | 6.0 | 13.0 | 0.00 | 0.10 | 0.00 | 53 | 1020.1 |
| 20260508132025 | 52 | 236 | 5.0 | 13.0 | 0.00 | 0.10 | 0.00 | 54 | 1020.1 |
| 20260508131504 | 52 | 253 | 5.0 | 16.0 | 0.00 | 0.10 | 0.00 | 54 | 1020.2 |
| 20260508131025 | 51 | 253 | 6.0 | 16.0 | 0.00 | 0.10 | 0.00 | 54 | 1020.2 |
| 20260508130504 | 52 | 256 | 5.0 | 16.0 | 0.00 | 0.10 | 0.00 | 54 | 1020.1 |
| 20260508130004 | 51 | 250 | 5.0 | 16.0 | 0.00 | 0.10 | 0.00 | 55 | 1019.9 |
| 20260508125504 | 51 | 235 | 3.0 | 14.0 | 0.00 | 0.10 | 0.00 | 55 | 1020.0 |
| 20260508125004 | 51 | 229 | 4.0 | 19.0 | 0.00 | 0.10 | 0.00 | 55 | 1020.1 |
| 20260508124504 | 51 | 235 | 3.0 | 19.0 | 0.00 | 0.10 | 0.00 | 57 | 1020.3 |
| 20260508124025 | 50 | 242 | 5.0 | 17.0 | 0.00 | 0.10 | 0.00 | 57 | 1020.1 |
| 20260508123525 | 50 | 228 | 6.0 | 16.0 | 0.00 | 0.10 | 0.00 | 57 | 1020.1 |
| 20260508123004 | 49 | 230 | 6.0 | 16.0 | 0.00 | 0.10 | 0.00 | 57 | 1020.0 |
| 20260508122504 | 49 | 248 | 6.0 | 16.0 | 0.00 | 0.10 | 0.00 | 58 | 1020.0 |
| 20260508122004 | 49 | 267 | 2.0 | 16.0 | 0.00 | 0.10 | 0.00 | 60 | 1020.2 |
| 20260508121504 | 49 | 244 | 5.0 | 16.0 | 0.00 | 0.10 | 0.00 | 59 | 1020.1 |
| 20260508121025 | 49 | 225 | 4.0 | 16.0 | 0.00 | 0.10 | 0.00 | 60 | 1020.2 |
| 20260508120504 | 48 | 238 | 3.0 | 14.0 | 0.00 | 0.10 | 0.00 | 61 | 1020.0 |
| 20260508120025 | 48 | 242 | 6.0 | 14.0 | 0.00 | 0.10 | 0.00 | 61 | 1020.0 |
| 20260508115524 | 48 | 253 | 4.0 | 16.0 | 0.00 | 0.10 | 0.00 | 61 | 1020.1 |
| 20260508115004 | 47 | 259 | 8.0 | 16.0 | 0.00 | 0.10 | 0.00 | 61 | 1020.0 |
| 20260508114504 | 47 | 277 | 4.0 | 17.0 | 0.00 | 0.10 | 0.00 | 61 | 1019.9 |
| 20260508114004 | 47 | 263 | 7.0 | 17.0 | 0.00 | 0.10 | 0.00 | 61 | 1019.8 |
| 20260508113524 | 47 | 248 | 4.0 | 13.0 | 0.00 | 0.10 | 0.00 | 61 | 1019.4 |
| 20260508113004 | 47 | 232 | 7.0 | 17.0 | 0.00 | 0.10 | 0.00 | 61 | 1019.6 |
| 20260508112503 | 47 | 216 | 4.0 | 17.0 | 0.00 | 0.10 | 0.00 | 61 | 1019.6 |
| 20260508112003 | 47 | 237 | 6.0 | 11.0 | 0.00 | 0.10 | 0.00 | 61 | 1019.4 |
| 20260508111503 | 47 | 252 | 7.0 | 16.0 | 0.00 | 0.10 | 0.00 | 61 | 1019.3 |
| 20260508111024 | 47 | 245 | 6.0 | 16.0 | 0.00 | 0.10 | 0.00 | 61 | 1019.4 |
| 20260508110503 | 47 | 236 | 2.0 | 14.0 | 0.00 | 0.10 | 0.00 | 62 | 1019.3 |
| 20260508110004 | 47 | 232 | 6.0 | 11.0 | 0.00 | 0.10 | 0.00 | 61 | 1019.0 |
| 20260508105503 | 46 | 221 | 2.0 | 10.0 | 0.00 | 0.10 | 0.00 | 63 | 1019.1 |
| 20260508105003 | 46 | 214 | 3.0 | 11.0 | 0.00 | 0.10 | 0.00 | 62 | 1018.8 |
| 20260508104503 | 46 | 232 | 2.0 | 11.0 | 0.00 | 0.10 | 0.00 | 61 | 1018.7 |
| 20260508104024 | 47 | 240 | 5.0 | 11.0 | 0.00 | 0.10 | 0.00 | 60 | 1018.4 |
| 20260508103503 | 47 | 226 | 2.0 | 11.0 | 0.00 | 0.10 | 0.00 | 61 | 1018.3 |
| 20260508103003 | 46 | 231 | 3.0 | 11.0 | 0.00 | 0.10 | 0.00 | 62 | 1018.3 |
| 20260508102503 | 47 | 238 | 4.0 | 11.0 | 0.00 | 0.10 | 0.00 | 61 | 1018.2 |
| 20260508102003 | 47 | 232 | 2.0 | 9.0 | 0.00 | 0.10 | 0.00 | 62 | 1018.2 |
| 20260508101503 | 47 | 231 | 4.0 | 8.0 | 0.00 | 0.10 | 0.00 | 63 | 1017.9 |
| 20260508101005 | 47 | 224 | 2.0 | 8.0 | 0.00 | 0.10 | 0.00 | 63 | 1017.8 |
| 20260508100505 | 47 | 218 | 3.0 | 8.0 | 0.00 | 0.10 | 0.00 | 62 | 1017.8 |
| 20260508100005 | 47 | 221 | 2.0 | 14.0 | 0.00 | 0.10 | 0.00 | 62 | 1017.8 |
| 20260508095505 | 47 | 222 | 4.0 | 14.0 | 0.00 | 0.10 | 0.00 | 62 | 1017.8 |
| 20260508095005 | 47 | 220 | 6.0 | 10.0 | 0.00 | 0.10 | 0.00 | 63 | 1017.6 |
| 20260508094505 | 47 | 218 | 3.0 | 10.0 | 0.00 | 0.10 | 0.00 | 63 | 1017.7 |
| 20260508094026 | 47 | 225 | 3.0 | 16.0 | 0.00 | 0.10 | 0.00 | 63 | 1017.7 |
| 20260508093505 | 47 | 223 | 4.0 | 16.0 | 0.00 | 0.10 | 0.00 | 62 | 1017.6 |
| 20260508093005 | 47 | 228 | 5.0 | 13.0 | 0.00 | 0.10 | 0.00 | 62 | 1017.6 |
| 20260508092505 | 47 | 243 | 6.0 | 13.0 | 0.00 | 0.10 | 0.00 | 64 | 1017.5 |
| 20260508092005 | 47 | 238 | 4.0 | 19.0 | 0.00 | 0.10 | 0.00 | 64 | 1017.3 |
| 20260508091526 | 47 | 220 | 5.0 | 25.0 | 0.00 | 0.10 | 0.00 | 63 | 1017.2 |
| 20260508091026 | 47 | 203 | 7.0 | 25.0 | 0.00 | 0.10 | 0.00 | 64 | 1017.0 |
| 20260508090505 | 47 | 214 | 6.0 | 14.0 | 0.00 | 0.10 | 0.00 | 65 | 1016.8 |
| 20260508090005 | 47 | 223 | 4.0 | 14.0 | 0.00 | 0.10 | 0.00 | 66 | 1016.8 |
| 20260508085505 | 46 | 229 | 3.0 | 10.0 | 0.00 | 0.10 | 0.00 | 68 | 1016.7 |
| 20260508085005 | 46 | 228 | 2.0 | 9.0 | 0.00 | 0.10 | 0.00 | 70 | 1016.5 |
| 20260508084505 | 46 | 225 | 2.0 | 8.0 | 0.00 | 0.10 | 0.00 | 71 | 1016.5 |
| 20260508084005 | 46 | 221 | 2.0 | 8.0 | 0.00 | 0.11 | 0.00 | 72 | 1016.4 |
| 20260508083505 | 46 | 219 | 4.0 | 9.0 | 0.00 | 0.11 | 0.00 | 71 | 1016.4 |
| 20260508083005 | 46 | 231 | 2.0 | 9.0 | 0.00 | 0.11 | 0.00 | 71 | 1016.4 |
| 20260508082505 | 46 | 228 | 5.0 | 9.0 | 0.00 | 0.14 | 0.00 | 71 | 1016.3 |
| 20260508082005 | 46 | 216 | 4.0 | 9.0 | 0.00 | 0.16 | 0.00 | 71 | 1016.4 |
| 20260508081505 | 46 | 222 | 4.0 | 9.0 | 0.00 | 0.16 | 0.00 | 71 | 1016.4 |
| 20260508081005 | 46 | 218 | 2.0 | 8.0 | 0.00 | 0.16 | 0.00 | 72 | 1016.4 |
| 20260508080505 | 46 | 221 | 1.0 | 9.0 | 0.00 | 0.16 | 0.00 | 73 | 1016.3 |
| 20260508080005 | 47 | 227 | 3.0 | 9.0 | 0.00 | 0.16 | 0.00 | 74 | 1016.4 |
| 20260508075505 | 47 | 224 | 1.0 | 8.0 | 0.00 | 0.16 | 0.00 | 74 | 1016.3 |
| 20260508075005 | 47 | 230 | 1.0 | 6.0 | 0.00 | 0.16 | 0.00 | 74 | 1016.4 |
| 20260508074505 | 47 | 226 | 1.0 | 8.0 | 0.00 | 0.16 | 0.00 | 74 | 1016.4 |
| 20260508074025 | 47 | 230 | 1.0 | 8.0 | 0.00 | 0.16 | 0.00 | 75 | 1016.7 |
| 20260508073504 | 47 | 231 | 2.0 | 6.0 | 0.00 | 0.20 | 0.00 | 75 | 1016.5 |
| 20260508073005 | 47 | 223 | 1.0 | 8.0 | 0.00 | 0.22 | 0.00 | 75 | 1016.4 |
| 20260508072504 | 47 | 223 | 3.0 | 8.0 | 0.00 | 0.22 | 0.00 | 74 | 1016.5 |
| 20260508072026 | 47 | 224 | 3.0 | 11.0 | 0.00 | 0.22 | 0.00 | 73 | 1016.3 |
| 20260508071526 | 47 | 216 | 2.0 | 11.0 | 0.00 | 0.22 | 0.00 | 74 | 1016.3 |
| 20260508071004 | 47 | 219 | 2.0 | 8.0 | 0.00 | 0.23 | 0.00 | 75 | 1016.3 |
| 20260508070504 | 47 | 231 | 3.0 | 5.0 | 0.00 | 0.23 | 0.00 | 75 | 1016.5 |
| 20260508070005 | 47 | 226 | 2.0 | 6.0 | 0.00 | 0.23 | 0.00 | 75 | 1016.2 |
| 20260508065504 | 47 | 236 | 1.0 | 9.0 | 0.00 | 0.23 | 0.00 | 75 | 1016.2 |
| 20260508065004 | 47 | 240 | 1.0 | 9.0 | 0.00 | 0.23 | 0.00 | 75 | 1016.3 |
| 20260508064504 | 47 | 219 | 2.0 | 6.0 | 0.00 | 0.23 | 0.00 | 73 | 1016.2 |
| 20260508064025 | 47 | 211 | 3.0 | 6.0 | 0.00 | 0.23 | 0.00 | 72 | 1016.3 |
| 20260508063504 | 47 | 217 | 3.0 | 8.0 | 0.00 | 0.23 | 0.00 | 72 | 1016.3 |
| 20260508063004 | 48 | 210 | 4.0 | 9.0 | 0.00 | 0.23 | 0.00 | 72 | 1016.1 |
| 20260508062504 | 48 | 211 | 1.0 | 9.0 | 0.00 | 0.23 | 0.00 | 73 | 1016.3 |
| 20260508062025 | 48 | 220 | 3.0 | 9.0 | 0.00 | 0.23 | 0.00 | 72 | 1016.1 |
| 20260508061504 | 48 | 214 | 2.0 | 6.0 | 0.00 | 0.23 | 0.00 | 72 | 1016.2 |
| 20260508061004 | 48 | 212 | 1.0 | 3.0 | 0.00 | 0.23 | 0.00 | 72 | 1016.4 |
| 20260508060505 | 48 | 231 | 1.0 | 10.0 | 0.00 | 0.23 | 0.00 | 71 | 1016.3 |
| 20260508060025 | 48 | 224 | 1.0 | 10.0 | 0.00 | 0.23 | 0.00 | 70 | 1016.4 |
| 20260508055504 | 49 | 207 | 2.0 | 8.0 | 0.00 | 0.23 | 0.00 | 68 | 1016.5 |
| 20260508055004 | 49 | 234 | 1.0 | 11.0 | 0.00 | 0.23 | 0.00 | 69 | 1016.7 |
| 20260508054504 | 49 | 238 | 3.0 | 11.0 | 0.00 | 0.23 | 0.00 | 68 | 1016.6 |
| 20260508054025 | 49 | 224 | 2.0 | 8.0 | 0.00 | 0.23 | 0.00 | 67 | 1016.7 |
| 20260508053504 | 50 | 221 | 2.0 | 10.0 | 0.00 | 0.23 | 0.00 | 68 | 1016.9 |
| 20260508053004 | 50 | 228 | 4.0 | 10.0 | 0.00 | 0.23 | 0.00 | 67 | 1016.8 |
| 20260508052504 | 50 | 236 | 4.0 | 10.0 | 0.00 | 0.23 | 0.00 | 67 | 1016.9 |
| 20260508052025 | 50 | 235 | 3.0 | 10.0 | 0.00 | 0.23 | 0.00 | 66 | 1016.9 |
| 20260508051504 | 50 | 234 | 4.0 | 8.0 | 0.00 | 0.23 | 0.00 | 67 | 1016.9 |
| 20260508051004 | 50 | 225 | 3.0 | 10.0 | 0.00 | 0.23 | 0.00 | 66 | 1016.9 |
| 20260508050504 | 50 | 234 | 2.0 | 10.0 | 0.00 | 0.23 | 0.00 | 66 | 1016.8 |
| 20260508050004 | 49 | 250 | 3.0 | 9.0 | 0.00 | 0.23 | 0.00 | 70 | 1016.7 |
| 20260508045504 | 49 | 265 | 1.0 | 5.0 | 0.00 | 0.23 | 0.00 | 75 | 1016.9 |
| 20260508045025 | 49 | 262 | 1.0 | 6.0 | 0.00 | 0.23 | 0.00 | 75 | 1016.7 |
| 20260508044504 | 49 | 254 | 3.0 | 6.0 | 0.00 | 0.23 | 0.00 | 72 | 1016.4 |
| 20260508044004 | 49 | 237 | 2.0 | 9.0 | 0.00 | 0.23 | 0.00 | 72 | 1016.1 |
| 20260508043504 | 49 | 226 | 2.0 | 9.0 | 0.00 | 0.23 | 0.00 | 72 | 1016.4 |
| 20260508043004 | 49 | 251 | 2.0 | 11.0 | 0.00 | 0.23 | 0.00 | 72 | 1016.5 |
| 20260508042504 | 50 | 266 | 2.0 | 11.0 | 0.00 | 0.23 | 0.00 | 72 | 1016.6 |
| 20260508042004 | 50 | 259 | 5.0 | 11.0 | 0.00 | 0.23 | 0.00 | 73 | 1016.1 |
| 20260508041504 | 50 | 235 | 2.0 | 8.0 | 0.00 | 0.23 | 0.00 | 73 | 1015.9 |
| 20260508041004 | 50 | 227 | 3.0 | 8.0 | 0.00 | 0.23 | 0.00 | 73 | 1015.5 |
| 20260508040504 | 50 | 221 | 1.0 | 5.0 | 0.00 | 0.23 | 0.00 | 74 | 1015.1 |
| 20260508040004 | 49 | 206 | 1.0 | 6.0 | 0.00 | 0.23 | 0.00 | 74 | 1014.9 |
| 20260508035504 | 49 | 203 | 2.0 | 6.0 | 0.00 | 0.23 | 0.00 | 73 | 1014.8 |
| 20260508035004 | 49 | 199 | 2.0 | 6.0 | 0.00 | 0.23 | 0.00 | 75 | 1014.8 |
| 20260508034504 | 49 | 196 | 1.0 | 6.0 | 0.00 | 0.23 | 0.00 | 75 | 1015.0 |
| 20260508034025 | 50 | 206 | 2.0 | 6.0 | 0.00 | 0.23 | 0.00 | 74 | 1015.3 |
| 20260508033504 | 50 | 214 | 3.0 | 8.0 | 0.00 | 0.23 | 0.00 | 73 | 1015.4 |
| 20260508033024 | 50 | 216 | 1.0 | 8.0 | 0.00 | 0.23 | 0.00 | 73 | 1015.6 |
| 20260508032503 | 50 | 215 | 2.0 | 5.0 | 0.00 | 0.23 | 0.00 | 73 | 1015.7 |
| 20260508032024 | 50 | 214 | 2.0 | 8.0 | 0.00 | 0.23 | 0.00 | 72 | 1015.3 |
| 20260508031503 | 51 | 220 | 1.0 | 8.0 | 0.00 | 0.23 | 0.00 | 70 | 1015.2 |
| 20260508031003 | 51 | 218 | 3.0 | 8.0 | 0.00 | 0.23 | 0.00 | 69 | 1015.2 |
| 20260508030503 | 51 | 211 | 2.0 | 9.0 | 0.00 | 0.23 | 0.00 | 69 | 1015.3 |
| 20260508030005 | 52 | 220 | 1.0 | 9.0 | 0.00 | 0.23 | 0.00 | 68 | 1015.5 |
| 20260508025503 | 52 | 227 | 2.0 | 8.0 | 0.00 | 0.23 | 0.23 | 68 | 1015.5 |
| 20260508025004 | 52 | 224 | 1.0 | 10.0 | 0.00 | 0.23 | 0.23 | 68 | 1015.5 |
| 20260508024504 | 52 | 230 | 2.0 | 10.0 | 0.00 | 0.23 | 0.23 | 67 | 1015.7 |
| 20260508024004 | 52 | 231 | 2.0 | 9.0 | 0.00 | 0.23 | 0.23 | 67 | 1015.7 |
| 20260508023525 | 53 | 230 | 3.0 | 11.0 | 0.00 | 0.23 | 0.23 | 66 | 1015.6 |
| 20260508023004 | 53 | 231 | 3.0 | 11.0 | 0.00 | 0.23 | 0.23 | 66 | 1015.6 |
| 20260508022524 | 53 | 237 | 4.0 | 13.0 | 0.00 | 0.23 | 0.23 | 66 | 1015.8 |
| 20260508022004 | 52 | 237 | 2.0 | 13.0 | 0.00 | 0.23 | 0.23 | 68 | 1015.8 |
| 20260508021503 | 52 | 234 | 2.0 | 14.0 | 0.00 | 0.23 | 0.23 | 69 | 1015.8 |
| 20260508021003 | 52 | 235 | 3.0 | 14.0 | 0.00 | 0.23 | 0.23 | 70 | 1015.8 |
| 20260508020503 | 53 | 244 | 5.0 | 13.0 | 0.00 | 0.23 | 0.23 | 69 | 1015.9 |
| 20260508020004 | 53 | 247 | 3.0 | 11.0 | 0.00 | 0.23 | 0.23 | 70 | 1015.6 |
| 20260508015503 | 53 | 236 | 2.0 | 9.0 | 0.00 | 0.23 | 0.23 | 70 | 1015.6 |
| 20260508015003 | 53 | 246 | 2.0 | 9.0 | 0.00 | 0.23 | 0.23 | 69 | 1015.4 |
| 20260508014524 | 53 | 246 | 2.0 | 10.0 | 0.00 | 0.23 | 0.23 | 69 | 1015.3 |
| 20260508014003 | 54 | 238 | 2.0 | 10.0 | 0.00 | 0.23 | 0.23 | 68 | 1015.2 |
| 20260508013503 | 53 | 235 | 4.0 | 13.0 | 0.00 | 0.23 | 0.23 | 70 | 1015.4 |
| 20260508013003 | 54 | 238 | 5.0 | 13.0 | 0.00 | 0.23 | 0.23 | 69 | 1015.3 |
| 20260508012503 | 54 | 233 | 5.0 | 13.0 | 0.00 | 0.23 | 0.23 | 69 | 1015.2 |
| 20260508012005 | 54 | 221 | 0.0 | 13.0 | 0.00 | 0.23 | 0.23 | 71 | 1015.1 |
| 20260508011506 | 54 | 230 | 4.0 | 13.0 | 0.00 | 0.23 | 0.23 | 71 | 1015.0 |
| 20260508011006 | 54 | 237 | 3.0 | 11.0 | 0.00 | 0.23 | 0.23 | 71 | 1014.9 |
| 20260508010526 | 54 | 233 | 5.0 | 11.0 | 0.00 | 0.23 | 0.23 | 71 | 1014.7 |
| 20260508010006 | 54 | 245 | 3.0 | 10.0 | 0.00 | 0.23 | 0.23 | 71 | 1014.7 |
| 20260508005506 | 54 | 243 | 2.0 | 9.0 | 0.00 | 0.23 | 0.23 | 73 | 1014.9 |
| 20260508005006 | 54 | 235 | 2.0 | 8.0 | 0.00 | 0.23 | 0.23 | 74 | 1014.9 |
| 20260508004506 | 54 | 234 | 3.0 | 9.0 | 0.00 | 0.23 | 0.23 | 73 | 1014.7 |
| 20260508004006 | 54 | 227 | 1.0 | 9.0 | 0.00 | 0.23 | 0.23 | 74 | 1014.8 |
| 20260508003505 | 54 | 223 | 2.0 | 6.0 | 0.00 | 0.23 | 0.23 | 74 | 1014.8 |
| 20260508003026 | 54 | 230 | 3.0 | 6.0 | 0.00 | 0.23 | 0.23 | 74 | 1014.7 |
| 20260508002505 | 54 | 233 | 2.0 | 6.0 | 0.00 | 0.23 | 0.23 | 74 | 1014.6 |
| 20260508002005 | 54 | 234 | 1.0 | 6.0 | 0.00 | 0.23 | 0.23 | 74 | 1014.5 |
| 20260508001505 | 54 | 237 | 1.0 | 6.0 | 0.00 | 0.23 | 0.23 | 75 | 1014.5 |
| 20260508001005 | 54 | 237 | 3.0 | 9.0 | 0.00 | 0.23 | 0.23 | 74 | 1014.5 |
| 20260508000505 | 54 | 238 | 1.0 | 9.0 | 0.00 | 0.23 | 0.23 | 74 | 1014.6 |
| 20260508000005 | 54 | 236 | 2.0 | 6.0 | 0.00 | 0.23 | 0.23 | 75 | 1014.5 |
| 20260507235505 | 54 | 229 | 0.0 | 6.0 | 0.00 | 0.23 | 0.23 | 76 | 1014.5 |
| 20260507235026 | 54 | 230 | 2.0 | 3.0 | 0.00 | 0.23 | 0.23 | 77 | 1014.6 |
| 20260507234505 | 54 | 228 | 2.0 | 6.0 | 0.00 | 0.23 | 0.23 | 78 | 1014.7 |
| 20260507234026 | 53 | 243 | 0.0 | 6.0 | 0.00 | 0.23 | 0.23 | 79 | 1014.6 |
| 20260507233505 | 54 | 243 | 3.0 | 6.0 | 0.00 | 0.23 | 0.23 | 79 | 1014.7 |
| 20260507233005 | 54 | 230 | 1.0 | 5.0 | 0.00 | 0.23 | 0.23 | 79 | 1014.6 |
| 20260507232505 | 54 | 220 | 1.0 | 3.0 | 0.00 | 0.23 | 0.23 | 79 | 1014.7 |
| 20260507232005 | 54 | 200 | 1.0 | 3.0 | 0.00 | 0.23 | 0.23 | 78 | 1014.9 |
| 20260507231505 | 54 | 191 | 0.0 | 2.0 | 0.00 | 0.23 | 0.23 | 79 | 1014.7 |
| 20260507231026 | 54 | 207 | 0.0 | 3.0 | 0.00 | 0.23 | 0.23 | 77 | 1014.8 |
| 20260507230505 | 55 | 218 | 0.0 | 5.0 | 0.00 | 0.23 | 0.23 | 76 | 1015.0 |
| 20260507230005 | 55 | 221 | 1.0 | 5.0 | 0.00 | 0.23 | 0.23 | 74 | 1014.8 |
| 20260507225505 | 55 | 227 | 1.0 | 5.0 | 0.00 | 0.23 | 0.23 | 74 | 1014.8 |
| 20260507225005 | 56 | 235 | 2.0 | 5.0 | 0.00 | 0.23 | 0.23 | 73 | 1014.8 |
| 20260507224505 | 56 | 217 | 1.0 | 3.0 | 0.00 | 0.23 | 0.23 | 72 | 1014.5 |
| 20260507224005 | 56 | 214 | 0.0 | 6.0 | 0.00 | 0.23 | 0.23 | 72 | 1014.4 |
| 20260507223505 | 56 | 222 | 1.0 | 8.0 | 0.00 | 0.23 | 0.23 | 72 | 1014.3 |
| 20260507223005 | 56 | 225 | 1.0 | 8.0 | 0.00 | 0.23 | 0.23 | 71 | 1014.1 |
| 20260507222505 | 56 | 230 | 1.0 | 6.0 | 0.00 | 0.23 | 0.23 | 72 | 1014.0 |
| 20260507222026 | 56 | 223 | 1.0 | 6.0 | 0.00 | 0.23 | 0.23 | 72 | 1014.1 |
| 20260507221505 | 56 | 226 | 0.0 | 8.0 | 0.00 | 0.23 | 0.23 | 74 | 1013.8 |
| 20260507221005 | 56 | 230 | 0.0 | 8.0 | 0.00 | 0.23 | 0.23 | 77 | 1013.9 |
| 20260507220505 | 56 | 230 | 0.0 | 5.0 | 0.00 | 0.23 | 0.23 | 80 | 1014.0 |
| 20260507220005 | 56 | 241 | 0.0 | 3.0 | 0.00 | 0.23 | 0.23 | 80 | 1013.9 |
| 20260507215526 | 56 | 232 | 1.0 | 3.0 | 0.00 | 0.23 | 0.23 | 79 | 1013.7 |
| 20260507215005 | 55 | 221 | 1.0 | 3.0 | 0.00 | 0.23 | 0.23 | 78 | 1013.4 |
| 20260507214504 | 55 | 222 | 1.0 | 3.0 | 0.00 | 0.23 | 0.23 | 81 | 1013.3 |
| 20260507214026 | 55 | 239 | 0.0 | 3.0 | 0.00 | 0.23 | 0.23 | 79 | 1013.2 |
| 20260507213505 | 56 | 245 | 1.0 | 3.0 | 0.00 | 0.23 | 0.23 | 80 | 1013.3 |
| 20260507213026 | 55 | 247 | 0.0 | 2.0 | 0.00 | 0.23 | 0.23 | 81 | 1013.3 |
| 20260507212505 | 56 | 236 | 0.0 | 2.0 | 0.00 | 0.23 | 0.23 | 81 | 1013.3 |
| 20260507212005 | 56 | 225 | 0.0 | 2.0 | 0.00 | 0.23 | 0.23 | 77 | 1013.1 |
| 20260507211504 | 57 | 202 | 0.0 | 2.0 | 0.00 | 0.23 | 0.23 | 80 | 1013.0 |
| 20260507211005 | 58 | 208 | 0.0 | 2.0 | 0.00 | 0.23 | 0.23 | 79 | 1012.9 |
| 20260507210505 | 58 | 237 | 0.0 | 3.0 | 0.00 | 0.23 | 0.23 | 76 | 1013.0 |